Time,TemperatureF,DewpointF,PressureIn,WindDirection,WindDirectionDegrees,WindSpeedMPH,WindSpeedGustMPH,Humidity,HourlyPrecipIn,Conditions,Clouds,dailyrainin,SoftwareType,DateUTC
2013-01-01 01:00:00,20.0,-99.9,-100.00,SSE,149,1.0,3.0,-999,-99.99,,,-99.99,,2013-01-01 08:00:00,
2013-01-01 01:32:00,20.0,-99.9,-100.00,SSE,149,1.0,3.0,-999,-99.99,,,-99.99,,2013-01-01 08:32:00,
2013-01-01 01:42:00,20.0,-99.9,-100.00,SSE,149,1.0,3.0,-999,-99.99,,,-99.99,,2013-01-01 08:42:00,
2013-01-01 01:54:00,20.0,-99.9,-100.00,SSE,149,1.0,3.0,-999,-99.99,,,-99.99,,2013-01-01 08:54:00,
2013-01-01 02:00:00,19.0,-99.9,-100.00,SE,139,3.0,3.0,-999,-99.99,,,-99.99,,2013-01-01 09:00:00,
2013-01-01 02:32:00,19.0,-99.9,-100.00,SE,139,3.0,3.0,-999,-99.99,,,-99.99,,2013-01-01 09:32:00,
2013-01-01 02:43:00,19.0,-99.9,-100.00,SE,139,3.0,3.0,-999,-99.99,,,-99.99,,2013-01-01 09:43:00,
2013-01-01 02:53:00,19.0,-99.9,-100.00,SE,139,3.0,3.0,-999,-99.99,,,-99.99,,2013-01-01 09:53:00,
2013-01-01 03:00:00,20.0,-99.9,-100.00,SSE,155,3.0,4.0,-999,-99.99,,,-99.99,,2013-01-01 10:00:00,
2013-01-01 03:33:00,20.0,-99.9,-100.00,SSE,155,3.0,4.0,-999,-99.99,,,-99.99,,2013-01-01 10:33:00,
2013-01-01 03:43:00,20.0,-99.9,-100.00,SSE,155,3.0,4.0,-999,-99.99,,,-99.99,,2013-01-01 10:43:00,
2013-01-01 03:53:00,20.0,-99.9,-100.00,SSE,155,3.0,4.0,-999,-99.99,,,-99.99,,2013-01-01 10:53:00,
2013-01-01 04:00:00,19.0,-99.9,-100.00,SSW,210,9.0,11.0,-999,-99.99,,,-99.99,,2013-01-01 11:00:00,
2013-01-01 04:33:00,19.0,-99.9,-100.00,SSW,210,9.0,11.0,-999,-99.99,,,-99.99,,2013-01-01 11:33:00,
2013-01-01 04:43:00,19.0,-99.9,-100.00,SSW,210,9.0,11.0,-999,-99.99,,,-99.99,,2013-01-01 11:43:00,
2013-01-01 04:53:00,19.0,-99.9,-100.00,SSW,210,9.0,11.0,-999,-99.99,,,-99.99,,2013-01-01 11:53:00,
2013-01-01 05:00:00,20.0,-99.9,-100.00,NW,312,4.0,6.0,-999,-99.99,,,-99.99,,2013-01-01 12:00:00,
2013-01-01 05:33:00,20.0,-99.9,-100.00,NW,312,4.0,6.0,-999,-99.99,,,-99.99,,2013-01-01 12:33:00,
2013-01-01 05:43:00,20.0,-99.9,-100.00,NW,312,4.0,6.0,-999,-99.99,,,-99.99,,2013-01-01 12:43:00,
2013-01-01 05:53:00,20.0,-99.9,-100.00,NW,312,4.0,6.0,-999,-99.99,,,-99.99,,2013-01-01 12:53:00,
2013-01-01 06:00:00,18.0,-99.9,-100.00,NNW,342,4.0,5.0,-999,-99.99,,,-99.99,,2013-01-01 13:00:00,
2013-01-01 06:33:00,18.0,-99.9,-100.00,NNW,342,4.0,5.0,-999,-99.99,,,-99.99,,2013-01-01 13:33:00,
2013-01-01 06:43:00,18.0,-99.9,-100.00,NNW,342,4.0,5.0,-999,-99.99,,,-99.99,,2013-01-01 13:43:00,
2013-01-01 06:53:00,18.0,-99.9,-100.00,NNW,342,4.0,5.0,-999,-99.99,,,-99.99,,2013-01-01 13:53:00,
2013-01-01 07:00:00,12.0,-99.9,-100.00,SSW,201,3.0,4.0,-999,-99.99,,,-99.99,,2013-01-01 14:00:00,
2013-01-01 07:33:00,12.0,-99.9,-100.00,SSW,201,3.0,4.0,-999,-99.99,,,-99.99,,2013-01-01 14:33:00,
2013-01-01 07:43:00,12.0,-99.9,-100.00,SSW,201,3.0,4.0,-999,-99.99,,,-99.99,,2013-01-01 14:43:00,
2013-01-01 07:53:00,12.0,-99.9,-100.00,SSW,201,3.0,4.0,-999,-99.99,,,-99.99,,2013-01-01 14:53:00,
2013-01-01 08:00:00,12.0,-99.9,-100.00,ESE,105,1.0,3.0,-999,-99.99,,,-99.99,,2013-01-01 15:00:00,
2013-01-01 08:33:00,12.0,-99.9,-100.00,ESE,105,1.0,3.0,-999,-99.99,,,-99.99,,2013-01-01 15:33:00,
2013-01-01 08:43:00,12.0,-99.9,-100.00,ESE,105,1.0,3.0,-999,-99.99,,,-99.99,,2013-01-01 15:43:00,
2013-01-01 08:53:00,12.0,-99.9,-100.00,ESE,105,1.0,3.0,-999,-99.99,,,-99.99,,2013-01-01 15:53:00,
2013-01-01 09:00:00,15.0,-99.9,-100.00,ESE,115,5.0,6.0,-999,-99.99,,,-99.99,,2013-01-01 16:00:00,
2013-01-01 09:33:00,15.0,-99.9,-100.00,ESE,115,5.0,6.0,-999,-99.99,,,-99.99,,2013-01-01 16:33:00,
2013-01-01 09:43:00,15.0,-99.9,-100.00,ESE,115,5.0,6.0,-999,-99.99,,,-99.99,,2013-01-01 16:43:00,
2013-01-01 09:53:00,15.0,-99.9,-100.00,ESE,115,5.0,6.0,-999,-99.99,,,-99.99,,2013-01-01 16:53:00,
2013-01-01 10:00:00,13.0,-99.9,-100.00,NNW,327,2.0,5.0,-999,-99.99,,,-99.99,,2013-01-01 17:00:00,
2013-01-01 10:33:00,13.0,-99.9,-100.00,NNW,327,2.0,5.0,-999,-99.99,,,-99.99,,2013-01-01 17:33:00,
2013-01-01 10:43:00,13.0,-99.9,-100.00,NNW,327,2.0,5.0,-999,-99.99,,,-99.99,,2013-01-01 17:43:00,
2013-01-01 10:53:00,13.0,-99.9,-100.00,NNW,327,2.0,5.0,-999,-99.99,,,-99.99,,2013-01-01 17:53:00,
2013-01-01 11:00:00,17.0,-99.9,-100.00,North,355,8.0,9.0,-999,-99.99,,,-99.99,,2013-01-01 18:00:00,
2013-01-01 11:33:00,17.0,-99.9,-100.00,North,355,8.0,9.0,-999,-99.99,,,-99.99,,2013-01-01 18:33:00,
2013-01-01 11:43:00,17.0,-99.9,-100.00,North,355,8.0,9.0,-999,-99.99,,,-99.99,,2013-01-01 18:43:00,
2013-01-01 11:53:00,17.0,-99.9,-100.00,North,355,8.0,9.0,-999,-99.99,,,-99.99,,2013-01-01 18:53:00,
2013-01-01 12:00:00,22.0,-99.9,-100.00,ENE,67,2.0,3.0,-999,-99.99,,,-99.99,,2013-01-01 19:00:00,
2013-01-01 12:33:00,22.0,-99.9,-100.00,ENE,67,2.0,3.0,-999,-99.99,,,-99.99,,2013-01-01 19:33:00,
2013-01-01 12:43:00,22.0,-99.9,-100.00,ENE,67,2.0,3.0,-999,-99.99,,,-99.99,,2013-01-01 19:43:00,
2013-01-01 12:53:00,22.0,-99.9,-100.00,ENE,67,2.0,3.0,-999,-99.99,,,-99.99,,2013-01-01 19:53:00,
2013-01-01 13:00:00,21.0,-99.9,-100.00,NW,314,3.0,7.0,-999,-99.99,,,-99.99,,2013-01-01 20:00:00,
2013-01-01 13:33:00,21.0,-99.9,-100.00,NW,314,3.0,7.0,-999,-99.99,,,-99.99,,2013-01-01 20:33:00,
2013-01-01 13:43:00,21.0,-99.9,-100.00,NW,314,3.0,7.0,-999,-99.99,,,-99.99,,2013-01-01 20:43:00,
2013-01-01 13:53:00,21.0,-99.9,-100.00,NW,314,3.0,7.0,-999,-99.99,,,-99.99,,2013-01-01 20:53:00,
2013-01-01 14:00:00,21.0,-99.9,-100.00,North,9,6.0,8.0,-999,-99.99,,,-99.99,,2013-01-01 21:00:00,
2013-01-01 14:33:00,21.0,-99.9,-100.00,North,9,6.0,8.0,-999,-99.99,,,-99.99,,2013-01-01 21:33:00,
2013-01-01 14:43:00,21.0,-99.9,-100.00,North,9,6.0,8.0,-999,-99.99,,,-99.99,,2013-01-01 21:43:00,
2013-01-01 14:53:00,21.0,-99.9,-100.00,North,9,6.0,8.0,-999,-99.99,,,-99.99,,2013-01-01 21:53:00,
2013-01-01 15:00:00,22.0,-99.9,-100.00,West,269,3.0,3.0,-999,-99.99,,,-99.99,,2013-01-01 22:00:00,
2013-01-01 15:33:00,22.0,-99.9,-100.00,West,269,3.0,3.0,-999,-99.99,,,-99.99,,2013-01-01 22:33:00,
2013-01-01 15:43:00,22.0,-99.9,-100.00,West,269,3.0,3.0,-999,-99.99,,,-99.99,,2013-01-01 22:43:00,
2013-01-01 15:53:00,22.0,-99.9,-100.00,West,269,3.0,3.0,-999,-99.99,,,-99.99,,2013-01-01 22:53:00,
2013-01-01 16:00:00,24.0,-99.9,-100.00,West,274,4.0,4.0,-999,-99.99,,,-99.99,,2013-01-01 23:00:00,
2013-01-01 16:33:00,24.0,-99.9,-100.00,West,274,4.0,4.0,-999,-99.99,,,-99.99,,2013-01-01 23:33:00,
2013-01-01 16:43:00,24.0,-99.9,-100.00,West,274,4.0,4.0,-999,-99.99,,,-99.99,,2013-01-01 23:43:00,
2013-01-01 16:53:00,24.0,-99.9,-100.00,West,274,4.0,4.0,-999,-99.99,,,-99.99,,2013-01-01 23:53:00,
2013-01-01 17:00:00,22.0,-99.9,-100.00,South,172,4.0,4.0,-999,-99.99,,,-99.99,,2013-01-02 00:00:00,
2013-01-01 17:33:00,22.0,-99.9,-100.00,South,172,4.0,4.0,-999,-99.99,,,-99.99,,2013-01-02 00:33:00,
2013-01-01 17:43:00,22.0,-99.9,-100.00,South,172,4.0,4.0,-999,-99.99,,,-99.99,,2013-01-02 00:43:00,
2013-01-01 17:53:00,22.0,-99.9,-100.00,South,172,4.0,4.0,-999,-99.99,,,-99.99,,2013-01-02 00:53:00,
2013-01-01 18:00:00,21.0,-99.9,-100.00,SSW,205,7.0,8.0,-999,-99.99,,,-99.99,,2013-01-02 01:00:00,
2013-01-01 18:33:00,21.0,-99.9,-100.00,SSW,205,7.0,8.0,-999,-99.99,,,-99.99,,2013-01-02 01:33:00,
2013-01-01 18:43:00,21.0,-99.9,-100.00,SSW,205,7.0,8.0,-999,-99.99,,,-99.99,,2013-01-02 01:43:00,
2013-01-01 18:53:00,21.0,-99.9,-100.00,SSW,205,7.0,8.0,-999,-99.99,,,-99.99,,2013-01-02 01:53:00,
2013-01-01 19:00:00,19.0,-99.9,-100.00,SSE,163,7.0,8.0,-999,-99.99,,,-99.99,,2013-01-02 02:00:00,
2013-01-01 19:33:00,19.0,-99.9,-100.00,SSE,163,7.0,8.0,-999,-99.99,,,-99.99,,2013-01-02 02:33:00,
2013-01-01 19:43:00,19.0,-99.9,-100.00,SSE,163,7.0,8.0,-999,-99.99,,,-99.99,,2013-01-02 02:43:00,
2013-01-01 19:53:00,19.0,-99.9,-100.00,SSE,163,7.0,8.0,-999,-99.99,,,-99.99,,2013-01-02 02:53:00,
2013-01-01 20:00:00,22.0,-99.9,-100.00,East,87,0.0,6.0,-999,-99.99,,,-99.99,,2013-01-02 03:00:00,
2013-01-01 20:33:00,22.0,-99.9,-100.00,East,87,0.0,6.0,-999,-99.99,,,-99.99,,2013-01-02 03:33:00,
2013-01-01 20:42:00,22.0,-99.9,-100.00,East,87,0.0,6.0,-999,-99.99,,,-99.99,,2013-01-02 03:42:00,
2013-01-01 20:53:00,22.0,-99.9,-100.00,East,87,0.0,6.0,-999,-99.99,,,-99.99,,2013-01-02 03:53:00,
2013-01-01 21:00:00,19.0,-99.9,-100.00,South,187,8.0,9.0,-999,-99.99,,,-99.99,,2013-01-02 04:00:00,
2013-01-01 21:33:00,19.0,-99.9,-100.00,South,187,8.0,9.0,-999,-99.99,,,-99.99,,2013-01-02 04:33:00,
2013-01-01 21:42:00,19.0,-99.9,-100.00,South,187,8.0,9.0,-999,-99.99,,,-99.99,,2013-01-02 04:42:00,
2013-01-01 21:53:00,19.0,-99.9,-100.00,South,187,8.0,9.0,-999,-99.99,,,-99.99,,2013-01-02 04:53:00,
2013-01-01 22:00:00,20.0,-99.9,-100.00,SW,217,9.0,11.0,-999,-99.99,,,-99.99,,2013-01-02 05:00:00,
2013-01-01 22:33:00,20.0,-99.9,-100.00,SW,217,9.0,11.0,-999,-99.99,,,-99.99,,2013-01-02 05:33:00,
2013-01-01 22:43:00,20.0,-99.9,-100.00,SW,217,9.0,11.0,-999,-99.99,,,-99.99,,2013-01-02 05:43:00,
2013-01-01 22:53:00,20.0,-99.9,-100.00,SW,217,9.0,11.0,-999,-99.99,,,-99.99,,2013-01-02 05:53:00,
2013-01-01 23:00:00,20.0,-99.9,-100.00,SW,234,7.0,9.0,-999,-99.99,,,-99.99,,2013-01-02 06:00:00,
2013-01-01 23:33:00,20.0,-99.9,-100.00,SW,234,7.0,9.0,-999,-99.99,,,-99.99,,2013-01-02 06:33:00,
2013-01-01 23:43:00,20.0,-99.9,-100.00,SW,234,7.0,9.0,-999,-99.99,,,-99.99,,2013-01-02 06:43:00,
2013-01-01 23:53:00,20.0,-99.9,-100.00,SW,234,7.0,9.0,-999,-99.99,,,-99.99,,2013-01-02 06:53:00,